SCP
0 0 0 0 0 0 0 0 0 0 0 0 0 0 0 0 0 0 0 0 0 0 0 0 0 0 0 0 0 0 0 0 0 0 0 0 0 0 0 0 0 0 0
0 0 0 0 0 0 0 0 0 0 0 0 0 0 0 0 0 0 0 0 0 0 0 0 0 0 0 0 0 0 0 0 0 0 0 0 0 0 0 0 0 0 0
0 0 0 0 0 0 0 0 0 0 0 0 0 0 0 0 0 0 0 0 0 0 0 0 0 0 0 0 0 0 0 0 0 0 0 0 0 0 0 0 0 0 0
0 0 0 0 0 0 0 0 0 0 0 0 0 0 0 0 0 0 0 0 0 0 0 0 0 0 0 0 0 0 0 0 0 0 0 0 0 0 0 0 0 0 0
0 0 0 0 0 0 0 0 0 0 0 0 0 0 0 0 0 0 0 0 0 0 0 0 0 0 0 0 0 0 0 0 0 0 0 0 0 0 0 0 0 0 0
0 0 0 0 0 0 0 0 0 0 0 0 0 0 0 0 0 0 0 0 0 0 0 0 0 0 0 0 0 0 0 0 0 0 0 0 0 0 0 0 0 0 0
0 0 0 0 0 0 0 0 0 0 0 0 0 0 0 0 0 0 0 0 0 0 0 0 0 0 0 0 0 0 0 0 0 0 0 0 0 0 0 0 0 0 0
0 0 0 0 0 0 0 0 0 0 0 0 0 0 0 0 0 0 0 0 0 0 0 0 0 0 0 0 0 0 0 0 0 0 0 0 0 0 0 0 0 0 0
0 0 0 0 0 0 0 0 0 0 0 0 0 0 0 0 0 0 0 0 0 0 0 0 0 0 0 0 0 0 0 0 0 0 0 0 0 0 0 0 0 0 0
0 0 0 0 0 0 0 0 0 0 0 0 0 0 0 0 0 0 0 0 0 0 0 0 0 0 0 0 0 0 0 0 0 0 0 0 0 0 0 0 0 0 0
0 0 0 0 0 0 0 0 0 0 0 0 0 0 0 0 0 0 0 0 0 0 0 0 0 0 0 0 0 0 0 0 0 0 0 0 0 0 0 0 0 0 0
0 0 0 0 0 0 0 0 0 0 0 0 0 0 0 0 0 0 0 0 0 0 0 0 0 0 0 0 0 0 0 0 0 0 0 0 0 0 0 0 0 0 0
0 0 0 0 0 0 0 0 0 0 0 0 0 0 0 0 0 0 0 0 0 0 0 0 0 0 0 0 0 0 0 0 0 0 0 0 0 0 0 0 0 0 0
0 0 0 0 0 0 0 0 0 0 0 0 0 0 0 0 0 0 0 0 0 0 0 0 0 0 0 0 0 0 0 0 0 0 0 0 0 0 0 0 0 0 0
0 0 0 0 0 0 0 0 0 0 0 0 0 0 0 0 0 0 0 0 0 0 0 0 0 0 0 0 0 0 0 0 0 0 0 0 0 0 0 0 0 0 0
0 0 0 0 0 0 0 0 0 0 0 0 0 0 0 0 0 0 0 0 0 0 0 0 0 0 0 0 0 0 0 0 0 0 0 0 0 0 0 0 0 0 0
0 0 0 0 0 0 0 0 0 0 0 0 0 0 0 -0 -0 -0 0 -0 -0 0 0 0 0 0 0 0 0 0 0 0 0 0 0 0 0 0 0 0 0 0 0
0 0 0 0 0 0 0 0 0 0 0 0 0 0 0 0 0 0 0 0 -0 -0 0 0 0 0 0 0 0 0 0 0 0 0 0 0 0 0 0 0 0 0 0
0 0 0 0 0 0 0 0 0 0 0 0 0 0 0 0 0 0 0 0 0 0 0 0 0 0 0 0 0 0 0 0 0 0 0 0 0 0 0 0 0 0 0
0 0 0 0 0 0 0 0 0 0 0 0 0 0 0 0 0 0 0 0 0 0 0 0 0 0 0 0 0 0 0 0 0 0 0 0 0 0 0 0 0 0 0
0 0 0 0 0 0 0 0 -0 0 0 -0 -0 0 0 0 0 0 0 0 0 0 0 0 0 0 0 0 0 0 0 0 0 0 0 0 0 0 0 0 0 0 0
0 0 0 0 0 0 0 0 0 0 0 0 -0 0 0 0 0 0 0 0 0 0 0 0 0 0 0 0 0 0 0 0 0 0 0 0 0 0 0 0 0 0 0
0 0 0 0 0 0 0 0 0 0 0 0 -0 0 0 0 0 0 0 0 0 0 0 0 0 0 0 0 0 0 0 0 0 0 0 0 0 0 0 0 0 0 0
0 0 0 0 0 0 0 0 0 0 0 0 -0 -0 0 0 0 0 0 0 0 0 0 0 0 0 0 0 0 0 0 0 0 0 0 0 0 0 0 0 0 0 0
0 0 0 0 0 -0 0 0 0 0 0 0 0 -0 -0 -0 0 0 0 0 0 0 0 0 0 0 0 0 0 0 0 0 0 0 0 0 0 0 0 0 0 0 0
0 0 0 0 0 -0 0 0 0 0 0 0 0 0 -0 0 0 0 0 0 0 0 0 0 0 0 0 0 0 0 0 0 0 0 0 0 0 0 0 0 0 0 0
Wind_Speed
2 2 2 2 3 2 3 3 3 3 3 3 3 2 2 2 2 2 2 4 3 2 2 2 2 2 3 3 3 3 3 4 5 6 7 7 8 9 9 10 11 12 13
2 2 2 3 3 3 2 2 2 2 2 2 3 3 3 2 2 2 2 3 4 4 3 2 1 2 3 4 3 3 4 3 4 6 6 6 7 7 8 9 10 11 12
2 2 2 3 3 3 3 2 3 2 2 2 3 3 3 3 2 2 2 2 2 4 4 3 2 2 2 3 3 3 4 4 4 5 5 5 6 6 7 8 9 10 11
3 2 2 3 3 3 3 2 2 3 3 3 2 3 3 3 3 2 2 2 2 2 3 3 2 2 1 2 3 4 4 4 4 4 5 5 5 6 7 8 9 10 10
3 2 2 2 3 3 3 3 3 2 2 3 2 2 3 3 3 3 3 3 3 2 2 2 3 3 2 0 2 3 4 4 4 4 5 5 5 5 7 8 8 9 9
3 2 2 3 3 3 3 3 3 3 2 2 2 3 3 3 3 3 3 3 3 3 2 2 2 2 3 2 0 1 3 4 4 5 5 5 6 6 7 8 8 8 9
3 3 2 3 3 3 3 3 2 3 3 2 2 3 3 3 4 3 3 3 3 3 3 2 2 2 2 3 1 1 1 3 4 5 5 5 6 6 7 8 8 8 8
3 2 3 2 3 3 4 4 3 2 3 3 2 2 3 4 4 4 3 3 3 3 3 3 2 2 2 2 2 1 0 1 2 4 5 6 6 7 7 8 8 8 8
2 2 2 2 2 2 2 3 3 3 2 3 3 2 2 1 2 3 3 3 3 3 2 2 2 2 2 2 2 1 0 1 2 3 5 6 7 8 8 8 8 8 8
2 2 2 2 2 2 2 2 2 2 2 2 2 2 1 1 1 2 3 3 3 3 3 2 2 2 2 2 2 2 1 2 2 2 3 5 7 8 8 8 8 8 9
3 2 2 2 2 2 2 3 2 2 2 1 1 1 2 2 1 1 1 3 3 2 2 2 1 2 2 2 1 2 2 1 1 1 2 3 6 8 8 9 9 9 9
2 3 2 2 2 2 2 2 2 2 2 2 1 1 1 1 1 1 0 1 2 2 2 2 2 1 1 1 2 2 2 1 1 1 1 1 3 5 7 8 9 9 9
2 2 2 2 1 1 1 1 2 2 2 2 1 1 1 0 1 1 1 0 1 2 2 2 2 1 1 1 1 3 2 1 0 0 0 1 2 3 5 7 9 9 10
2 2 2 2 2 2 2 2 2 2 2 2 2 1 1 1 0 1 1 1 1 2 2 3 2 2 2 1 1 2 1 1 1 1 1 1 2 3 4 5 6 8 9
1 1 2 2 2 2 2 2 2 2 2 2 2 2 1 1 1 0 1 1 2 1 2 2 2 2 2 1 2 1 1 2 1 1 1 2 2 3 3 4 5 6 6
2 2 2 2 2 2 2 2 1 2 2 2 1 2 2 1 1 1 0 0 1 2 1 2 2 2 2 2 2 1 1 2 2 2 1 2 2 3 4 4 5 5 6
2 2 2 2 2 2 2 2 2 2 2 3 3 2 2 2 2 1 1 1 0 1 1 2 2 2 2 2 2 2 1 1 1 2 2 2 3 3 4 4 5 5 6
2 2 2 2 2 2 2 2 2 2 2 3 3 3 3 2 2 1 1 1 0 1 1 2 2 2 2 2 2 2 2 1 1 2 2 3 3 3 4 4 5 5 6
3 3 3 3 3 2 2 2 2 2 2 2 2 2 2 2 2 2 1 1 1 0 1 1 2 1 2 1 1 2 2 2 2 2 2 3 4 4 4 4 4 5 6
3 3 3 3 3 2 2 2 2 2 2 2 2 2 2 2 2 2 2 1 1 1 0 1 2 2 2 2 1 1 2 2 2 2 2 2 3 3 4 5 5 5 5
3 3 3 3 3 2 3 2 2 2 2 3 3 3 3 3 4 3 2 2 1 1 1 1 2 2 2 1 2 2 2 2 2 2 1 1 1 2 2 4 5 5 6
3 3 3 3 4 4 6 5 3 1 2 2 3 4 4 4 6 7 7 5 2 2 2 1 2 2 3 3 2 2 2 1 3 1 1 2 1 2 2 2 4 5 6
3 3 3 3 3 4 8 7 5 2 2 2 3 3 4 5 6 4 6 7 5 5 4 3 3 4 4 4 3 3 3 3 4 2 1 2 2 3 3 3 5 6 6
2 2 2 2 3 5 8 7 6 3 2 2 3 3 3 4 5 5 4 4 4 5 5 4 4 6 5 4 4 4 4 3 3 2 2 3 2 3 2 2 5 7 7
1 1 1 2 2 4 7 6 5 2 2 3 3 3 3 3 9 9 4 4 5 5 6 7 8 8 9 8 4 2 2 2 3 3 3 3 2 2 2 2 3 6 8
1 1 1 1 1 3 6 7 5 1 2 2 3 3 6 7 9 9 4 3 5 6 6 6 6 6 5 6 5 4 4 3 3 3 3 3 2 2 2 2 2 3 4
Wind_Direction
51 33 16 13 8 4 1 355 355 359 3 3 8 11 359 3 356 350 335 346 354 338 318 288 235 212 192 186 177 150 130 119 109 98 91 90 88 90 92 95 96 96 97
61 42 26 14 4 354 349 347 349 354 352 358 7 8 0 2 357 351 351 359 11 6 350 327 282 224 206 193 186 169 147 135 123 113 105 99 97 97 102 104 104 103 103
53 46 30 11 351 344 350 -0 4 10 14 13 10 4 5 1 357 356 3 9 9 6 360 355 334 276 222 199 187 180 163 149 137 130 123 114 112 111 113 114 113 113 112
54 49 32 5 347 353 4 10 14 14 13 12 8 360 6 2 2 4 18 17 16 9 2 0 358 344 285 206 192 188 170 159 150 143 139 130 126 125 120 120 118 117 118
45 51 33 2 358 10 12 8 22 21 13 5 8 19 16 14 5 18 24 20 17 16 10 3 16 17 7 327 190 194 179 175 167 157 152 145 140 136 132 127 125 124 124
35 42 30 10 13 20 12 11 16 20 21 2 26 33 22 18 23 28 24 21 18 20 24 21 17 7 13 16 160 209 191 188 188 177 165 158 154 149 146 139 136 136 135
29 38 26 14 17 23 9 7 15 21 17 7 37 21 10 21 34 29 20 25 23 17 24 26 22 22 5 14 40 116 196 201 203 194 181 172 167 161 157 152 150 151 148
18 31 35 20 14 16 17 18 24 24 17 22 55 58 16 2 4 15 17 27 22 15 19 27 30 32 26 22 12 45 93 225 231 210 194 185 178 174 170 166 165 161 157
12 27 27 26 21 28 15 11 21 42 29 14 38 87 91 11 329 345 10 19 13 13 6 8 29 27 31 36 17 4 354 237 260 228 204 198 187 180 178 177 173 169 166
3 13 12 24 24 22 17 7 35 37 57 27 13 36 95 162 115 349 342 353 3 10 4 7 16 15 25 33 15 359 320 255 255 241 215 206 193 187 184 184 183 179 175
356 2 9 18 15 10 9 18 28 40 53 59 28 19 43 50 71 117 338 335 348 346 354 355 2 4 15 20 353 346 347 299 255 248 230 213 204 196 192 189 190 189 183
341 353 5 11 4 2 3 12 26 43 46 58 47 44 58 58 40 98 117 330 332 320 339 350 360 1 3 12 336 343 342 339 263 234 218 210 211 204 203 201 198 194 190
332 331 352 349 351 342 352 22 38 33 32 45 41 34 42 42 177 149 128 356 340 323 337 345 346 349 1 17 338 348 336 328 340 272 232 203 213 221 215 212 210 202 198
286 310 336 348 352 356 9 28 34 16 26 27 26 34 37 355 33 153 153 131 20 347 346 329 333 348 352 352 339 351 342 327 297 320 302 235 220 225 234 222 214 210 209
317 348 2 3 0 7 19 36 28 3 11 12 4 12 16 345 5 18 139 146 137 36 320 315 325 335 342 336 331 351 343 341 329 293 269 261 245 236 233 229 223 216 209
2 17 17 13 9 8 10 36 21 2 18 3 1 14 3 344 1 15 54 104 140 157 245 289 290 306 320 333 347 344 321 337 331 316 288 265 264 254 239 233 233 226 213
15 28 26 31 24 16 8 25 11 8 10 0 6 20 359 351 9 7 24 59 104 148 221 284 281 302 315 332 340 336 317 312 304 297 282 260 256 256 248 240 235 227 218
20 25 34 40 31 27 22 25 7 14 13 1 354 10 358 1 7 3 12 1 293 205 200 273 301 313 308 304 311 310 308 288 267 278 266 263 255 250 246 239 232 225 219
34 31 39 35 22 20 20 15 14 9 1 344 342 358 347 6 348 337 337 335 325 300 207 231 281 292 294 300 315 309 300 297 284 275 261 249 249 245 242 235 230 225 220
52 36 34 30 25 26 22 12 15 11 1 348 337 331 329 335 318 313 310 301 316 338 290 249 277 293 288 297 284 282 296 293 293 295 278 248 243 243 242 232 228 227 223
55 45 42 28 20 26 22 18 12 17 2 353 349 340 331 336 331 322 316 298 276 290 298 274 281 293 288 289 268 258 262 289 284 254 264 261 245 252 253 245 232 224 218
50 51 43 34 25 20 22 32 42 29 11 1 347 341 338 348 344 342 333 318 282 241 239 240 261 265 271 260 263 254 250 273 282 252 213 268 227 251 255 244 239 224 215
57 53 37 35 22 6 21 29 37 56 32 5 349 344 349 356 354 336 335 340 327 301 264 232 241 253 262 256 252 258 244 232 246 249 191 259 241 250 253 249 235 223 215
72 61 40 29 18 4 17 25 31 54 34 4 347 335 333 333 339 344 333 331 318 307 292 268 244 254 257 253 238 245 245 243 265 261 199 237 237 242 257 247 237 221 214
78 61 42 31 20 349 5 20 35 45 22 356 342 342 339 330 339 351 343 325 319 310 304 294 281 278 279 275 259 252 246 233 264 261 210 214 231 237 253 257 241 220 212
131 89 39 15 6 340 353 12 31 55 18 348 342 341 344 341 340 348 340 321 315 310 317 320 311 303 293 287 275 232 229 233 246 255 218 200 217 202 252 251 238 220 211